[Iaude] MPEC G151: 2024 GD3 [a=1.19,e=0.37,i=10.0,H=26.0]
    mpec at cfa.harvard.edu 
    mpec at cfa.harvard.edu
       
    Thu Apr 11 07:19:03 EDT 2024
    
    
  
M.P.E.C. 2024-G151                               Issued 2024 April 11, 11:17 UT
     The Minor Planet Electronic Circulars contain information on unusual
         minor planets, routine data on comets and natural satellites,
         and occasional editorial announcements.  They are published
    on behalf of Division F of the International Astronomical Union by the
          Minor Planet Center, Smithsonian Astrophysical Observatory,
                          Cambridge, MA 02138, U.S.A.
			  
             Prepared using the Tamkin Foundation Computer Network
                              MPC at CFA.HARVARD.EDU
            URL https://www.minorplanetcenter.net/    ISSN 1523-6714
                                    2024 GD3                                    
Observations:
     K24G03D*1C2024 04 10.32391012 16 21.968+17 57 50.40         21.57GVEG151G96
     K24G03D 1C2024 04 10.32910212 16 24.150+17 57 51.77         21.14GVEG151G96
     K24G03D 1C2024 04 10.33427612 16 26.346+17 57 53.68               VEG151G96
     K24G03D 1C2024 04 10.33944312 16 28.553+17 57 54.86         20.97GVEG151G96
     K24G03D KC2024 04 10.42953112 17 07.627+17 58 17.69         21.24GVEG151I52
     K24G03D KC2024 04 10.43417812 17 09.647+17 58 18.70         21.01GVEG151I52
     K24G03D KC2024 04 10.43881612 17 11.710+17 58 19.92         21.09GVEG151I52
     K24G03D KC2024 04 10.44345112 17 13.736+17 58 20.71         21.57GVEG151I52
     K24G03D 1C2024 04 10.92127 12 20 53.87 +18 00 48.0          21.4 VXEG151033
     K24G03D 1C2024 04 10.92365 12 20 54.81 +18 00 49.4          21.6 VXEG151033
     K24G03D 1C2024 04 10.92601 12 20 55.75 +18 00 50.4          21.4 VXEG151033
     K24G03D 1C2024 04 10.92839 12 20 56.67 +18 00 51.7          21.4 VXEG151033
     K24G03D 1C2024 04 10.95885 12 21 08.20 +18 00 59.3          20.4 VXEG151033
     K24G03D 1C2024 04 10.96123 12 21 09.08 +18 00 59.0          20.3 VXEG151033
     K24G03D 1C2024 04 10.96360 12 21 10.05 +18 01 00.8          20.4 VXEG151033
     K24G03D 1C2024 04 10.96597 12 21 10.91 +18 01 01.3          20.3 VXEG151033
     K24G03D KC2024 04 11.22085012 22 57.58 +18 02 45.1          21.3 GXEG151858
     K24G03D KC2024 04 11.23143812 23 01.25 +18 02 49.0          21.5 GXEG151858
     K24G03D KC2024 04 11.23358 12 23 00.67 +18 02 41.6          20.5 RVEG151734
     K24G03D KC2024 04 11.23895112 23 04.499+18 02 56.94         21.06GVEG151I52
     K24G03D KC2024 04 11.24095812 23 05.248+18 02 56.87         21.83GVEG151I52
     K24G03D KC2024 04 11.24183612 23 04.83 +18 02 51.7          21.1 GXEG151858
     K24G03D KC2024 04 11.24296912 23 05.989+18 02 58.63         20.91GVEG151I52
     K24G03D KC2024 04 11.24497612 23 06.659+18 02 58.56         21.41GVEG151I52
     K24G03D KC2024 04 11.24514 12 23 04.74 +18 02 43.6          20.7 RVEG151734
     K24G03D KC2024 04 11.25671 12 23 08.66 +18 02 45.8          20.9 RVEG151734
Observer details:
033 Karl Schwarzschild Observatory, Tautenburg.  Observers S. Melnikov, C.
    Hogner, F. Ludwig, M. Hartmann, B. Stecklum.  Measurer B. Stecklum.
    1.34-m f/3 Schmidt + CCD.
734 Farpoint Observatory, Eskridge.  Observers G. Hug, D. Cromer, D. Goodin,
    R. Valentine.  Measurer G. Hug.  0.7m reflector + CCD.
858 Tebbutt Observatory, Edgewood.  Observer F. B. Zoltowski.  0.51-m f/8.1
    Schmidt-Cassegrain + CCD.
G96 Mt. Lemmon Survey.  Observer A. D. Grauer.  Measurers T. Beuden, V. F.
    Carvajal, D. Fay, J. B. Fazekas, D. C. Fuls, A. R. Gibbs, A. D. Grauer, H.
    Groeller, J. K. Hogan, R. A. Kowalski, S. M. Larson, G. J. Leonard, D.
    Rankin, R. L. Seaman, F. C. Shelly, K. W. Wierzchos.  1.5-m reflector +
    10K CCD.
I52 Steward Observatory, Mt. Lemmon Station.  Observers G. J. Leonard, V. F.
    Carvajal.  Measurers T. Beuden, V. F. Carvajal, D. Fay, J. B. Fazekas, D.
    C. Fuls, A. R. Gibbs, A. D. Grauer, H. Groeller, J. K. Hogan, R. A.
    Kowalski, S. M. Larson, G. J. Leonard, D. Rankin, R. L. Seaman, F. C.
    Shelly, K. W. Wierzchos.  1.0-m prime focus + CCD.
Orbital elements:
2024 GD3                                                 Earth MOID = 0.0065 AU
Epoch 2024 Mar. 31.0 TT = JDT 2460400.5                 Veres                   
M  43.47907              (2000.0)            P               Q                  
n   0.75574346     Peri.  272.19061     -0.27153264     -0.96154540             
a   1.1936760      Node   193.77897     +0.93744620     -0.25454211             
e   0.3714579      Incl.    9.97015     +0.21786384     -0.10314439             
P   1.30           H   26.00          G   0.15           U   8                  
Residuals in seconds of arc
240410 G96  0.5+  0.7+    240410 033  0.2+  0.3+    240411 734  0.2+  0.3+
240410 G96  0.0   0.3+    240410 033  0.8+  0.6+    240411 I52  0.9-  0.3+
240410 G96  0.3-  0.4+    240410 033  1.0+  1.1+    240411 I52  0.1-  0.3-
240410 G96  0.3-  0.0     240410 033  0.3+  0.0     240411 858  0.9-  0.1-
240410 I52  0.3+  0.3-    240410 033  0.1-  1.0-    240411 I52  0.6+  0.9+
240410 I52  0.1-  0.2-    240410 033  0.9+  0.2+    240411 I52  0.4+  0.2+
240410 I52  0.1+  0.1+    240410 033  0.4+  0.1+    240411 734  1.0+  0.4-
240410 I52  0.3-  0.0     240411 858  0.7-  0.7-    240411 734  0.4-  0.7-
240410 033  0.2-  0.4-    240411 858  0.7-  0.1+
Ephemeris:
2024 GD3                 a,e,i = 1.19, 0.37, 10                  q = 0.7503
Date    TT    R. A. (2000) Decl.     Delta      r    Elong.  Phase     V
2024 03 12    01 41 02.3 -17 41 31   0.1522  0.8741    35.4   138.8    28.3
...
2024 03 27    02 45 47.8 -17 34 11   0.04649 0.9628    40.4   137.8    25.8
...
2024 04 04    09 42 53.4 +11 13 04   0.01974 1.0129   129.8    49.3    19.3
...
2024 04 10    12 13 43.3 +17 55 58   0.05587 1.0506   150.1    28.4    21.1
2024 04 11    12 21 26.2 +18 02 28   0.06265 1.0569   150.1    28.2    21.4
2024 04 12    12 27 41.0 +18 05 52   0.06950 1.0632   150.0    28.1    21.6
...
2024 04 18    12 49 23.0 +17 55 11   0.1118  1.1006   148.2    28.7    22.7
...
2024 04 26    13 02 34.0 +17 06 19   0.1707  1.1497   144.6    30.4    23.8
...
2024 05 11    13 16 41.7 +14 44 32   0.2901  1.2373   136.7    34.0    25.2
M. P. C. Staff               (C) Copyright 2024 MPC           M.P.E.C. 2024-G151
    
    
More information about the Iaude
mailing list